Regional Weather Roundup
Issued by NWS

Home | Current Version | Previous Version | Text Only | Print | Product List | Glossary On
Versions: 1 2 3 4 5 6 7 8 9 10 11 12 13 14 15 16 17 18 19 20 21 22 23 24 25 26 27 28 29 30 31 32 33 34 35 36 37 38 39 40 41 42 43 44 45 46 47 48 49 50
000
ASUS45 KREV 042310
RWRNV
NEVADA REGIONAL WEATHER ROUNDUP
NATIONAL WEATHER SERVICE RENO NV
300 PM PST WED MAR 04 2015

NOTE: "FAIR" INDICATES FEW OR NO CLOUDS BELOW 12,000 FEET WITH NO
SIGNIFICANT WEATHER AND/OR OBSTRUCTIONS TO VISIBILITY.

NVZ001-003-004-050000-
WESTERN NEVADA

CITY           SKY/WX    TMP DP  RH WIND       PRES   REMARKS
RENO           NOT AVBL
CARSON CITY    FAIR      50  19  29 NE8       30.19S
MINDEN         FAIR      48   7  18 NE5       30.19S
SLIDE MTN        N/A     36  14  41 W1          N/A
FALLON         NOT AVBL
LOVELOCK       NOT AVBL
HAWTHORNE      SUNNY     50  12  22 NW7       30.19F
$$

NVZ002-CAZ072-073-050000-
NORTHERN AND CENTRAL SIERRA

CITY           SKY/WX    TMP DP  RH WIND       PRES   REMARKS
SQUAW VLY 8000   N/A     34   1  25 CALM        N/A
SUSANVILLE     SUNNY     50  18  27 E3        30.20F
BLUE CANYON    SUNNY     49  22  34 VRB3      30.16R
MAMMOTH LAKES  FAIR      50   0  12 SE7       30.15S
BRIDGEPORT     FAIR      50  12  21 SE10      30.11R
$$

NVZ030-031-036-050000-
NORTHERN NEVADA

CITY           SKY/WX    TMP DP  RH WIND       PRES   REMARKS
ELKO           NOT AVBL
WINNEMUCCA     NOT AVBL
WENDOVER       SUNNY     41  18  38 SE8       30.22S
$$

NVZ035-037-050000-
CENTRAL NEVADA

CITY           SKY/WX    TMP DP  RH WIND       PRES   REMARKS
ELY            NOT AVBL
EUREKA           N/A     38  14  37 VRB5      30.19S
$$

NVZ013-014-050000-
SOUTH CENTRAL NEVADA

CITY           SKY/WX    TMP DP  RH WIND       PRES   REMARKS
TONOPAH        NOT AVBL
$$

NVZ017-020-022-050000-
SOUTHERN NEVADA

CITY           SKY/WX    TMP DP  RH WIND       PRES   REMARKS
LAS VEGAS      NOT AVBL
NELLIS AFB     SUNNY     59  14  17 NE12      30.15S
HENDERSON      NOT AVBL
MERCURY        SUNNY     56  13  18 VRB5      30.15S
$$



USA.gov is the U.S. government's official web portal to all federal, state and local government web resources and services.